Network for Lightning and Thunderstorms in Real Time - Real time lightning map
Regions/Countries: current only
List of Stations for "Australia / South Australia" sorted descending by Used
(Used = Number of selected signals used to compute the strike position)
StationCityCommentCountryRegionsStatusLast signalTotalValidInvolvedUsedClosestFarthest
2438Athelstone (IADELA729)2 x 200mm Ferrite, 200mm E-fie...Australia / South AustraliaOceania 1Running2024-02-21 12:1853633835375298734 km4177 km
2175IronbankAustralia / South AustraliaOceania 1Running2024-02-21 12:1819481807327290748 km4188 km
1248RidgehavenRed E200mm onlyAustralia / South AustraliaOceania 1Running2024-02-21 12:18101137093290234728 km4173 km
2953StrathalbynSHR/Hallett/CFS SBYN-02Australia / South AustraliaOceania 1Running2024-02-21 12:182539917200324143753 km4220 km
2353WhyallaMostly relying on e field ante...Australia / South AustraliaOceania 1Running2024-02-21 12:181088912232131701 km3963 km
2349Mil-LelTesting H FieldAustralia / South AustraliaOceania 1Idle2024-02-21 12:185534541614074903 km4533 km
2976AdelaideAustralia / South AustraliaOceania 1Running2024-02-21 12:1828637298048745 km3371 km
2271TaperooTestingAustralia / South AustraliaOceania 1Running2024-02-21 12:171791736129781 km2787 km
2353WhyallaMostly relying on e field ante...Australia / South AustraliaAsia 1Running2024-02-21 12:18108891212102834 km4782 km
2105Port LincolnAustralia / South AustraliaOceania 1Idle2024-02-21 11:3776664 km33 km
2271TaperooTestingAustralia / South AustraliaAsia 1Running2024-02-21 12:171791731462944 km4982 km
2353WhyallaMostly relying on e field ante...Australia / South AustraliaJapan 1Running2024-02-21 12:181088912334551 km4611 km
1016Paringa, South Australia300mm ferrite Hfield/200mm Efi...Australia / South AustraliaOceania 1Running2024-02-21 12:1712566541541206 km1572 km
2353WhyallaMostly relying on e field ante...Australia / South AustraliaAfrica 1Running2024-02-21 12:181088912110 km9274 km
2353WhyallaMostly relying on e field ante...Australia / South AustraliaEurope 1Running2024-02-21 12:181088912110 km7839 km
1015Lyrup, South Australia300mm ferrite Hfield/800mm Efi...Australia / South AustraliaOceania 1Offline2023-10-21 08:37000024000 km0 km
1015Lyrup, South Australia300mm ferrite Hfield/800mm Efi...Australia / South AustraliaAsia 1Offline2023-10-21 08:37000024000 km0 km
1694Salisbury, South Australia3 x 200mm Ferrite + 300mm E. F...Australia / South AustraliaOceania 1Offline2022-10-30 00:00000024000 km0 km
2105Port LincolnAustralia / South AustraliaEurope 3Idle2024-02-21 11:3776100 km15957 km
2105Port LincolnAustralia / South AustraliaEurope 1Idle2024-02-21 11:3776000 km0 km
2105Port LincolnAustralia / South AustraliaSouth America 1Idle2024-02-21 11:3776000 km0 km
2105Port LincolnAustralia / South AustraliaAfrica 1Idle2024-02-21 11:3776000 km0 km
2105Port LincolnAustralia / South AustraliaEurope 2Idle2024-02-21 11:3776100 km15957 km
2271TaperooTestingAustralia / South AustraliaJapan 2Running2024-02-21 12:171791732104952 km7538 km
2353WhyallaMostly relying on e field ante...Australia / South AustraliaSouth America 1Running2024-02-21 12:181088912000 km0 km
2667Para Hills WestBack To Testing StageAustralia / South AustraliaOceania 1Idle2024-02-19 16:55000024000 km0 km
Select your menu language
češtinadanskdeutschελληνικάenglishespañolsuomeksifrançaismagyaritaliano日本語latviskinederlandsenorskмакедонскиpolskiрусскийсрпскиsvenskatürkукраїнський
If your language is not supported and if you want to adapt the menu language, then write an email to info ☺ blitzortung.org.